Air Quality Table

TIMESTAMP NO2 SO2 O3 PM10 PM2.5 CO TEMP HUM AIRPRES WS WD NO BENZENE
2023-01-30 02:00 1.9 µg/m3 0.88 µg/m3 68.11 µg/m3 7.56 µg/m3 3.1 µg/m3 0.28 mg/m3 12.1 °C 70.01 % 1,018.12 mbar 3.62 m/s 23.37 Deg 0.09 µg/m3 1.26 µg/m3
2023-01-30 01:00 0.63 µg/m3 0.77 µg/m3 62.87 µg/m3 9.75 µg/m3 5 µg/m3 0.3 mg/m3 12.88 °C 70.51 % 1,017.82 mbar 5.93 m/s 42.37 Deg 0.67 µg/m3 1.65 µg/m3
2023-01-30 00:00 2.2 µg/m3 0.53 µg/m3 60.64 µg/m3 12.7 µg/m3 6.57 µg/m3 0.32 mg/m3 13.52 °C 66.75 % 1,018.00 mbar 4.95 m/s 39.88 Deg 1.5 µg/m3 1.66 µg/m3
2023-01-29 23:00 1.1 µg/m3 0.37 µg/m3 63.54 µg/m3 12.42 µg/m3 6.53 µg/m3 0.34 mg/m3 13.5 °C 68.83 % 1,017.85 mbar 5.37 m/s 53.83 Deg 0.93 µg/m3 1.68 µg/m3
2023-01-29 22:00 2.9 µg/m3 0.66 µg/m3 60.19 µg/m3 13.06 µg/m3 6.61 µg/m3 0.37 mg/m3 13.33 °C 71.12 % 1,017.75 mbar 5.16 m/s 44.04 Deg 1.11 µg/m3 1.84 µg/m3
2023-01-29 21:00 15.63 µg/m3 0.74 µg/m3 43.32 µg/m3 13.01 µg/m3 6.28 µg/m3 0.4 mg/m3 10.47 °C 84.51 % 1,017.57 mbar 1.47 m/s 237.67 Deg 4.69 µg/m3 1.99 µg/m3
2023-01-29 20:00 28.66 µg/m3 0.64 µg/m3 37.55 µg/m3 9.15 µg/m3 4.91 µg/m3 0.4 mg/m3 10.28 °C 87.24 % 1,017.49 mbar 1.08 m/s 146.46 Deg 8.52 µg/m3 2.39 µg/m3
2023-01-29 19:00 32.6 µg/m3 0.73 µg/m3 34.76 µg/m3 9.35 µg/m3 4.68 µg/m3 0.39 mg/m3 10.3 °C 87.15 % 1,017.25 mbar 0.99 m/s 137.45 Deg 11.06 µg/m3 2.73 µg/m3
2023-01-29 18:00 13.4 µg/m3 0.42 µg/m3 51.47 µg/m3 13.62 µg/m3 4.77 µg/m3 0.33 mg/m3 11.77 °C 76.72 % 1,016.67 mbar 3.05 m/s 174.29 Deg 5.38 µg/m3 1.81 µg/m3
2023-01-29 17:00 8.38 µg/m3 0.5 µg/m3 56.8 µg/m3 11.23 µg/m3 4.17 µg/m3 0.31 mg/m3 12.7 °C 73.3 % 1,016.09 mbar 5.11 m/s 59.21 Deg 4.77 µg/m3 1.89 µg/m3
2023-01-29 16:00 8.42 µg/m3 0.9 µg/m3 56.36 µg/m3 12.98 µg/m3 4.43 µg/m3 0.31 mg/m3 12.92 °C 73.67 % 1,015.91 mbar 5.17 m/s 46.23 Deg 5.09 µg/m3 1.87 µg/m3
2023-01-29 15:00 5.62 µg/m3 0.54 µg/m3 59.91 µg/m3 11.87 µg/m3 4.68 µg/m3 0.32 mg/m3 12.99 °C 71.52 % 1,015.71 mbar 4.91 m/s 60.68 Deg 3.62 µg/m3 1.73 µg/m3
2023-01-29 14:00 7.89 µg/m3 0.67 µg/m3 58.59 µg/m3 12.69 µg/m3 5.12 µg/m3 0.34 mg/m3 13.05 °C 70.63 % 1,015.91 mbar 4.5 m/s 57.78 Deg 4.54 µg/m3 3.15 µg/m3
2023-01-29 13:00 8.04 µg/m3 0.89 µg/m3 57.21 µg/m3 12.79 µg/m3 4.38 µg/m3 0.34 mg/m3 12.97 °C 68.65 % 1,016.55 mbar 4.07 m/s 54.45 Deg 4.18 µg/m3 1.84 µg/m3
2023-01-29 12:00 7.75 µg/m3 0.82 µg/m3 58.33 µg/m3 10.58 µg/m3 3.36 µg/m3 0.33 mg/m3 12.83 °C 66.14 % 1,017.15 mbar 3.91 m/s 55.43 Deg 3.71 µg/m3 2.15 µg/m3
2023-01-29 11:00 8.72 µg/m3 0.61 µg/m3 54.02 µg/m3 7.66 µg/m3 2.98 µg/m3 0.34 mg/m3 12.68 °C 70.66 % 1,017.17 mbar 3.58 m/s 58.25 Deg 3.88 µg/m3 1.52 µg/m3
2023-01-29 10:00 7.56 µg/m3 0.77 µg/m3 57.75 µg/m3 3.36 µg/m3 2.16 µg/m3 0.35 mg/m3 12.89 °C 66.56 % 1,016.52 mbar 4.5 m/s 47.77 Deg 3.28 µg/m3 1.21 µg/m3
2023-01-29 09:00 15.46 µg/m3 0.53 µg/m3 49.62 µg/m3 3.7 µg/m3 2.19 µg/m3 0.37 mg/m3 12.19 °C 69.91 % 1,015.88 mbar 2.62 m/s 117.68 Deg 9.39 µg/m3 1.84 µg/m3
2023-01-29 08:00 22.19 µg/m3 0.61 µg/m3 36.98 µg/m3 5.96 µg/m3 2.82 µg/m3 0.32 mg/m3 10.52 °C 76.84 % 1,015.28 mbar 0.75 m/s 237.04 Deg 11.58 µg/m3 1.31 µg/m3
2023-01-29 07:00 8.97 µg/m3 0.55 µg/m3 55.37 µg/m3 5.4 µg/m3 2.28 µg/m3 0.27 mg/m3 10.5 °C 77.46 % 1,014.95 mbar 1.4 m/s 274.21 Deg 3.27 µg/m3 1.21 µg/m3
2023-01-29 06:00 6.42 µg/m3 0.44 µg/m3 56.28 µg/m3 4.35 µg/m3 2.13 µg/m3 0.28 mg/m3 10.53 °C 76.66 % 1,014.72 mbar 2.21 m/s 290.12 Deg 1.2 µg/m3 1.12 µg/m3
2023-01-29 05:00 10.23 µg/m3 0.7 µg/m3 51.16 µg/m3 3.55 µg/m3 2.06 µg/m3 0.29 mg/m3 10.11 °C 79.68 % 1,014.48 mbar 1.67 m/s 238.4 Deg 2.4 µg/m3 1.23 µg/m3
2023-01-29 04:00 10.5 µg/m3 0.37 µg/m3 55.08 µg/m3 3.06 µg/m3 1.99 µg/m3 0.31 mg/m3 10.48 °C 78.33 % 1,014.24 mbar 1.23 m/s 261.72 Deg 1.19 µg/m3 1.18 µg/m3
2023-01-29 03:00 31.33 µg/m3 0.57 µg/m3 52.12 µg/m3 4.14 µg/m3 2.27 µg/m3 0.21 mg/m3 10.52 °C 78.39 % 1,014.19 mbar 1.07 m/s 260.98 Deg 1.41 µg/m3 1.31 µg/m3
2023-01-29 02:00 8.57 µg/m3 0.36 µg/m3 53.92 µg/m3 4.52 µg/m3 2.42 µg/m3 0.26 mg/m3 10.89 °C 77.45 % 1,014.09 mbar 1.39 m/s 255.77 Deg 1.82 µg/m3 1.23 µg/m3
2023-01-29 01:00 7.9 µg/m3 0.41 µg/m3 49.94 µg/m3 4.7 µg/m3 2.75 µg/m3 0.27 mg/m3 10.54 °C 78.81 % 1,013.80 mbar 1.49 m/s 281.95 Deg 1.83 µg/m3 1.21 µg/m3
2023-01-29 00:00 1.24 µg/m3 0.49 µg/m3 69.08 µg/m3 4.51 µg/m3 1.76 µg/m3 0.28 mg/m3 10.91 °C 71.89 % 1,013.74 mbar 2.88 m/s 120.32 Deg 0.98 µg/m3 1.05 µg/m3
2023-01-28 23:00 5.33 µg/m3 0.49 µg/m3 60.44 µg/m3 10.02 µg/m3 3.68 µg/m3 0.32 mg/m3 10.14 °C 82.75 % 1,013.96 mbar 2.7 m/s 282.03 Deg 1.95 µg/m3 1.24 µg/m3
2023-01-28 22:00 8.77 µg/m3 0.41 µg/m3 53.56 µg/m3 11.34 µg/m3 4.05 µg/m3 0.38 mg/m3 9.99 °C 83.48 % 1,013.36 mbar 2.73 m/s 256.08 Deg 2.19 µg/m3 1.5 µg/m3
2023-01-28 21:00 28.59 µg/m3 0.68 µg/m3 28.6 µg/m3 8.15 µg/m3 3.61 µg/m3 0.41 mg/m3 9.41 °C 86.54 % 1,012.83 mbar 1.49 m/s 221.78 Deg 16.88 µg/m3 2.12 µg/m3
2023-01-28 20:00 33.63 µg/m3 0.76 µg/m3 27.33 µg/m3 6.06 µg/m3 3.21 µg/m3 0.37 mg/m3 9.22 °C 86.64 % 1,012.43 mbar 1.18 m/s 212.73 Deg 16.34 µg/m3 2.39 µg/m3
2023-01-28 19:00 21.32 µg/m3 0.6 µg/m3 46.42 µg/m3 8.09 µg/m3 3.53 µg/m3 0.33 mg/m3 9.47 °C 84.42 % 1,012.37 mbar 2.35 m/s 257.02 Deg 11.09 µg/m3 1.4 µg/m3
2023-01-28 18:00 19.9 µg/m3 0.74 µg/m3 52.32 µg/m3 4.73 µg/m3 2.25 µg/m3 0.31 mg/m3 10.99 °C 68.08 % 1,011.57 mbar 1.87 m/s 274.47 Deg 7.57 µg/m3 1.33 µg/m3
2023-01-28 17:00 9.48 µg/m3 0.63 µg/m3 62.35 µg/m3 5.89 µg/m3 2.56 µg/m3 0.31 mg/m3 11.11 °C 73.68 % 1,011.25 mbar 3.45 m/s 294.43 Deg 4.33 µg/m3 1.21 µg/m3
2023-01-28 16:00 28.64 µg/m3 0.75 µg/m3 36.72 µg/m3 7.03 µg/m3 3.77 µg/m3 0.34 mg/m3 10.37 °C 83.63 % 1,010.69 mbar 2.46 m/s 212.84 Deg 14.12 µg/m3 1.91 µg/m3
2023-01-28 15:00 25.92 µg/m3 0.67 µg/m3 39.09 µg/m3 6.38 µg/m3 3.19 µg/m3 0.32 mg/m3 10.4 °C 82.89 % 1,010.32 mbar 2.68 m/s 234.22 Deg 14.03 µg/m3 1.61 µg/m3
2023-01-28 14:00 26.11 µg/m3 0.47 µg/m3 40.01 µg/m3 8.8 µg/m3 3.25 µg/m3 0.31 mg/m3 10.33 °C 80.55 % 1,010.41 mbar 2.4 m/s 240.28 Deg 14.41 µg/m3 1.24 µg/m3
2023-01-28 13:00 9.54 µg/m3 0.6 µg/m3 59.07 µg/m3 10.31 µg/m3 2.75 µg/m3 0.31 mg/m3 12.84 °C 65.42 % 1,010.59 mbar 2.75 m/s 272.55 Deg 4.15 µg/m3 1.21 µg/m3
2023-01-28 12:00 24.1 µg/m3 0.83 µg/m3 44.54 µg/m3 6.41 µg/m3 2.5 µg/m3 0.33 mg/m3 11.6 °C 75.04 % 1,011.03 mbar 1.36 m/s 177.9 Deg 15.55 µg/m3 1.54 µg/m3
2023-01-28 11:00 13.01 µg/m3 0.63 µg/m3 57.09 µg/m3 7.23 µg/m3 2.34 µg/m3 0.31 mg/m3 12.26 °C 70.36 % 1,011.28 mbar 2.24 m/s 329.58 Deg 6.13 µg/m3 1.45 µg/m3
2023-01-28 10:00 15.69 µg/m3 0.63 µg/m3 51.55 µg/m3 7.23 µg/m3 2.52 µg/m3 0.32 mg/m3 10.91 °C 78.87 % 1,011.01 mbar 1.67 m/s 294.16 Deg 5.75 µg/m3 1.36 µg/m3
2023-01-28 09:00 22.95 µg/m3 0.5 µg/m3 47.49 µg/m3 6.65 µg/m3 2.29 µg/m3 0.34 mg/m3 9.45 °C 79.13 % 1,010.32 mbar 1.94 m/s 289.14 Deg 12.36 µg/m3 1.31 µg/m3
2023-01-28 08:00 23.05 µg/m3 0.59 µg/m3 43.51 µg/m3 6.34 µg/m3 3.05 µg/m3 0.34 mg/m3 10.7 °C 74.84 % 1,009.90 mbar 2.79 m/s 259.8 Deg 11.69 µg/m3 1.54 µg/m3
2023-01-28 07:00 30.86 µg/m3 0.79 µg/m3 33.86 µg/m3 5.84 µg/m3 2.71 µg/m3 0.32 mg/m3 9.93 °C 75.93 % 1,009.58 mbar 1.62 m/s 236.88 Deg 21.15 µg/m3 2.34 µg/m3
2023-01-28 06:00 24.4 µg/m3 0.72 µg/m3 41.59 µg/m3 6.38 µg/m3 2.43 µg/m3 0.26 mg/m3 9.68 °C 77.56 % 1,009.46 mbar 1.32 m/s 216.25 Deg 17.4 µg/m3 1.36 µg/m3
2023-01-28 05:00 5.29 µg/m3 0.25 µg/m3 63.22 µg/m3 3.59 µg/m3 1.49 µg/m3 0.23 mg/m3 10.25 °C 72.95 % 1,009.23 mbar 2.98 m/s 253.91 Deg 0.8 µg/m3 1 µg/m3
2023-01-28 04:00 7.7 µg/m3 0.28 µg/m3 68.32 µg/m3 5.15 µg/m3 1.81 µg/m3 0.23 mg/m3 10.4 °C 73.91 % 1,009.35 mbar 3.48 m/s 263.33 Deg 0.34 µg/m3 0.94 µg/m3

It is to be noted that the data is provisional and subject to quality assurance procedures. For validated data kindly refer your request to contact.air@era.org.mt